Regional Weather Roundup
Issued by NWS

Home | Current Version | Previous Version | Text Only | Print | Product List | Glossary On
Versions: 1 2 3 4 5 6 7 8 9 10 11 12 13 14 15 16 17 18 19 20 21 22 23 24 25 26 27 28 29 30 31 32 33 34 35 36 37 38 39 40 41 42 43 44 45 46 47 48 49 50
783
ASCA44 KEWX 251020
RWRMX

LATIN AMERICA AND CARIBBEAN REGIONAL WEATHER ROUNDUP
NATIONAL WEATHER SERVICE AUSTIN/SAN ANTONIO TX
500 AM CDT MON JUL 25 2016

NOTE: "FAIR" INDICATED FEW OR NO CLOUDS BELOW 12,000 FEET WITH NO
SIGNIFICANT WEATHER AND/OR OBSTRUCTIONS TO VISIBILITY.

BAJA CALIFORNIA

CITY           SKY/WX    TMP DP  RH WIND       PRES   REMARKS
S.J. DEL CABO    N/A    N/A N/A N/A MISG        N/A
TIJUANA        MOCLDY    70  63  78 NW3       29.94F

NORTHWESTERN MEXICO

CITY           SKY/WX    TMP DP  RH WIND       PRES   REMARKS
DURANGO        CLOUDY    63  57  82 S5        30.26
HERMOSILLO     TSTM      79  75  89 SE12G23   30.00R VSB 1

NORTHEASTERN MEXICO

CITY           SKY/WX    TMP DP  RH WIND       PRES   REMARKS
MONCLOVA         N/A    N/A N/A N/A MISG        N/A
MONTERREY      CLEAR     79  70  73 E5        29.90R
NUEVO LAREDO   CLEAR     81  73  78 SE9       29.89
REYNOSA          N/A    N/A N/A N/A MISG        N/A
CD. VICTORIA     N/A    N/A N/A N/A MISG        N/A

WESTERN MEXICO

CITY           SKY/WX    TMP DP  RH WIND       PRES   REMARKS
AGUASCALIENTES PTCLDY    59  57  94 N5        30.26
COLIMA           N/A    N/A N/A N/A MISG        N/A
DEL BAJIO      CLOUDY    59  59 100 CALM      30.29
GUADALAJARA      N/A    N/A N/A N/A MISG        N/A
MAZATLAN       CLOUDY    77  75  94 CALM      29.91S
P. VALLARTA    MOCLDY    73  73 100 N5        29.89F
URUAPAN          N/A    N/A N/A N/A MISG        N/A
ZACATECAS        N/A    N/A N/A N/A MISG        N/A

CENTRAL MEXICO

CITY           SKY/WX    TMP DP  RH WIND       PRES   REMARKS
CUERNAVACA       N/A    N/A N/A N/A MISG        N/A
MEXICO CITY    CLOUDY    61  54  77 W3        30.31F
MORELIA        MOCLDY    59  57  94 CALM      30.22F
POZA RICA        N/A    N/A N/A N/A MISG        N/A
QUERETARO      MOCLDY    59  55  88 CALM      30.28F
S. LUIS POTOSI MOCLDY    55  52  88 CALM      30.25S
TAMPICO        CLEAR     81  75  83 CALM      29.89
TOLUCA         PTCLDY    52  50  93 CALM      30.38S FOG

SOUTHERN MEXICO

CITY           SKY/WX    TMP DP  RH WIND       PRES   REMARKS
ACAPULCO       LGT RAIN  81  75  83 NE6       29.85S
B. DE HUATULCO   N/A    N/A N/A N/A MISG        N/A
P. ESCONDIDO     N/A    N/A N/A N/A MISG        N/A
VERACRUZ         N/A    N/A N/A N/A MISG        N/A

YUCATAN PENINSULA

CITY           SKY/WX    TMP DP  RH WIND       PRES   REMARKS
CAMPECHE         N/A    N/A N/A N/A MISG        N/A
CANCUN         CLOUDY    77  77 100 E6        29.97S
CHETUMAL         N/A    N/A N/A N/A MISG        N/A
CD. DEL CARMEN PTCLDY    82  75  78 SE18      29.90
COZUMEL        PTCLDY    72  72 100 CALM      29.97S
MERIDA         CLEAR     73  72  94 E10       29.95S
MINATITLAN     CLOUDY    75  70  83 CALM      29.83
TAPACHULA      MOCLDY    81  72  74 CALM      29.82F
VILLAHERMOSA   CLOUDY    75  73  94 CALM      29.90

CENTRAL AMERICA

CITY           SKY/WX    TMP DP  RH WIND       PRES   REMARKS
MANAGUA        MOSUNNY   75  72  88 E5        29.83

CARIBBEAN

CITY           SKY/WX    TMP DP  RH WIND       PRES   REMARKS
ARUBA          PTCLDY    82  75  78 SE14      29.89R
CURACAO        PTCLDY    82  73  74 E14       29.92R
KINGSTON       PTCLDY    82  73  74 N5        29.92S
NASSAU         TSTM      82  82 100 NE13G30   30.09R HX  97
SAN JUAN       PTCLDY    79  73  83 CALM      30.00S
SANTO DOMINGO  PTCLDY    73  73 100 CALM      29.97S
ST. CROIX      PTCLDY    79  75  89 NE6       30.00R
ST. KITTS      PTCLDY    81  75  83 NE12      29.97
ST. MAARTEN    PTCLDY    82  75  78 E10       30.00R
ST. THOMAS     CLEAR     82  75  78 NE6       29.99

$$





USA.gov is the U.S. government's official web portal to all federal, state and local government web resources and services.